This is the latest recevied weather packets stored in our database for station/object KD2VWU. If no packets are shown the sender has not sent any weather packets the latest 10 day(s).
| Time | Temp. | Humidity | Pressure | Rain* | Wind** | Luminosity | Snow |
|---|---|---|---|---|---|---|---|
| 1778094328 | 15.56° C | 99% | 1004.3 hPa | 1.78 mm | - | - | - |
| 1778094025 | 15.56° C | 99% | 1004.4 hPa | 0 mm | - | - | - |
| 1778093722 | 15.56° C | 99% | 1004.4 hPa | 0 mm | - | - | - |
| 1778093418 | 15.56° C | 99% | 1004.3 hPa | 0 mm | - | - | - |
| 1778093116 | 15.56° C | 99% | 1004.3 hPa | 0 mm | - | - | - |
| 1778092813 | 15.56° C | 99% | 1004.3 hPa | 0 mm | - | - | - |
| 1778092508 | 15.56° C | 99% | 1004.4 hPa | 0 mm | - | - | - |
| 1778092205 | 15.56° C | 99% | 1004.4 hPa | 0 mm | - | - | - |
| 1778091902 | 15.56° C | 99% | 1004.7 hPa | 0 mm | - | - | - |
| 1778091599 | 15.56° C | 99% | 1004.7 hPa | 0 mm | - | - | - |
| 1778091298 | 15.56° C | 99% | 1004.8 hPa | 0 mm | - | - | - |
| 1778090994 | 15.56° C | 99% | 1004.8 hPa | 0 mm | - | - | - |
| 1778090691 | 15.56° C | 99% | 1004.9 hPa | 0 mm | - | - | - |
| 1778090387 | 15.56° C | 98% | 1004.9 hPa | 1.27 mm | - | - | - |
| 1778090084 | 15.56° C | 98% | 1004.9 hPa | 1.27 mm | - | - | - |
| 1778089781 | 15.56° C | 98% | 1004.9 hPa | 1.78 mm | - | - | - |
| 1778089479 | 15.56° C | 98% | 1005.1 hPa | 1.78 mm | - | - | - |
| 1778089175 | 15.56° C | 97% | 1005.1 hPa | 0 mm | - | - | - |
| 1778088872 | 15.56° C | 97% | 1004.9 hPa | 1.27 mm | - | - | - |
| 1778088569 | 16.11° C | 96% | 1004.9 hPa | 1.27 mm | - | - | - |
| 1778088266 | 16.11° C | 96% | 1004.5 hPa | 0 mm | - | - | - |
| 1778087963 | 16.11° C | 96% | 1004.5 hPa | 0 mm | - | - | - |
| 1778087661 | 16.11° C | 95% | 1004.9 hPa | 0 mm | - | - | - |
| 1778087358 | 16.67° C | 95% | 1004.5 hPa | 1.78 mm | - | - | - |
| 1778087053 | 16.67° C | 95% | 1004.9 hPa | 1.78 mm | - | - | - |
* Rain latest hour (hover to see other rain measurements)
** Current wind speed in m/s (hover to see current wind gust speed)